Home > Weather > Fürstenfeldbruck > Past weeks

Flag for Germany Past Weather in Fürstenfeldbruck, Bavaria, Germany — Yesterday and Last 2 Weeks

Now
55 °F

Passing clouds.


Feels Like: 52 °F
Forecast: 51 / 67 °F
Wind: 13 mph from Southwest

Location: Lechfeld

Current Time: May 30, 2016 at 3:25:43 AM

Latest Report: May 30, 2016 at 2:20 AM


Visibility: N/A

Pressure: 29.71 "Hg (27.92 "Hg at 520m altitude)

Humidity: 94%

Dew Point: 54 °F

Location of FürstenfeldbruckLocation

Past Weather in Fürstenfeldbruck — Graph

°F

Fürstenfeldbruck Temperature Yesterday

Maximum temperature yesterday: 72 °F (at 3:20 PM)
Minimum temperature yesterday: 55 °F (at 12:20 AM)
Average temperature yesterday: 62 °F

High & Low Weather Summary for the Past Weeks

 TemperatureHumidityPressure
High79 °F (May 22, 2:20 PM)100% (May 18, 5:20 AM)30.18 "Hg (May 18, 5:20 AM)
Low39 °F (May 18, 3:20 AM)32% (May 22, 2:20 PM)29.62 "Hg (May 29, 4:20 PM)
Average54 °F76%29.98 "Hg
* Reported May 15 1:20 AM — May 30 1:20 AM, Fürstenfeldbruck, Weather by CustomWeather, © 2016

Note: Actual official high and low records may vary slightly from our data, if they occured in-between our weather recording intervals... More about our weather records

Advertising

Fürstenfeldbruck Weather History for the Previous 24 Hours

Scroll right to see more
 ConditionsComfort  
Time TempWeatherWind HumidityBarometerVisibility
1:20 AM
Mon, May 30
55 °FLight rain. Passing clouds.12 mph94%29.71 "HgN/A
12:20 AM55 °FLight rain. Passing clouds.10 mph94%29.71 "HgN/A
11:20 PM
Sun, May 29
55 °FLight rain. Partly cloudy.10 mph94%29.71 "HgN/A
10:20 PM55 °FLight rain. Partly cloudy.8 mph94%29.71 "HgN/A
9:20 PM55 °FBroken clouds.9 mph100%29.68 "HgN/A
8:20 PM57 °FCool.6 mph94%29.71 "Hg2 mi
7:20 PM57 °FCool.9 mph100%29.68 "Hg2 mi
6:20 PM55 °FCool.24 mph94%29.65 "Hg0 mi
5:20 PM70 °FMild.2 mph73%29.62 "HgN/A
4:20 PM68 °FMild.12 mph73%29.62 "HgN/A
3:20 PM72 °FMild.12 mph65%29.65 "HgN/A
2:20 PM70 °FMild.6 mph69%29.68 "HgN/A
1:20 PM70 °FMild.5 mph69%29.71 "HgN/A
12:20 PM70 °FMild.5 mph69%29.71 "HgN/A
11:20 AM68 °FMild.6 mph73%29.74 "HgN/A
10:20 AM68 °FMild.5 mph69%29.74 "HgN/A
9:20 AM64 °FMild.6 mph78%29.77 "HgN/A
8:20 AM63 °FMild.1 mph88%29.77 "Hg6 mi
7:20 AM61 °FCool.2 mph88%29.77 "Hg4 mi
6:20 AM59 °FCool.5 mph94%29.77 "Hg4 mi
5:20 AM59 °FCool.7 mph94%29.77 "Hg3 mi
4:20 AM59 °FCool.3 mph88%29.77 "Hg5 mi
3:20 AM59 °FCool.2 mph88%29.77 "Hg6 mi
Weather by CustomWeather, © 2016

See weather overviewHow to use our weather pages